This is the latest recevied weather packets stored in our database for station/object DC4AT. If no packets are shown the sender has not sent any weather packets the latest 10 day(s).
| Time | Temp. | Humidity | Pressure | Rain* | Wind** | Luminosity | Snow |
|---|---|---|---|---|---|---|---|
| 1787755660 | 18.33° C | 82% | 1018.7 hPa | 0 mm | - | 559 W/m² | - |
| 1787755060 | 17.78° C | 83% | 1018.6 hPa | 0 mm | - | 359 W/m² | - |
| 1787754460 | 17.78° C | 83% | 1018.7 hPa | 0 mm | - | 176 W/m² | - |
| 1787753860 | 17.78° C | 82% | 1018.8 hPa | 0 mm | - | 74 W/m² | - |
| 1787753260 | 17.78° C | 83% | 1018.8 hPa | 0 mm | - | 70 W/m² | - |
| 1787752660 | 17.22° C | 83% | 1018.7 hPa | 0 mm | - | 86 W/m² | - |
| 1787752060 | 17.22° C | 83% | 1018.8 hPa | 0 mm | - | 76 W/m² | - |
| 1787751460 | 17.22° C | 83% | 1018.9 hPa | 0 mm | - | 76 W/m² | - |
| 1787750860 | 17.22° C | 82% | 1019 hPa | 0 mm | - | 63 W/m² | - |
| 1787750260 | 17.22° C | 82% | 1019 hPa | 0 mm | - | 53 W/m² | - |
| 1787749660 | 17.22° C | 83% | 1019.1 hPa | 0 mm | - | 69 W/m² | - |
| 1787749060 | 17.22° C | 82% | 1018.9 hPa | 0 mm | - | 67 W/m² | - |
| 1787748460 | 17.22° C | 84% | 1018.9 hPa | 0 mm | - | 79 W/m² | - |
| 1787747860 | 17.22° C | 84% | 1019 hPa | 0 mm | - | 65 W/m² | - |
| 1787747260 | 17.22° C | 84% | 1019.1 hPa | 0 mm | - | 46 W/m² | - |
| 1787746660 | 17.22° C | 85% | 1019 hPa | 0 mm | - | 62 W/m² | - |
| 1787746060 | 17.22° C | 85% | 1018.9 hPa | 0 mm | - | 69 W/m² | - |
| 1787745460 | 17.22° C | 84% | 1019 hPa | 0 mm | - | 51 W/m² | - |
| 1787744860 | 17.22° C | 84% | 1018.9 hPa | 0 mm | - | 54 W/m² | - |
| 1787744261 | 17.22° C | 85% | 1018.9 hPa | 0 mm | - | 88 W/m² | - |
| 1787743661 | 17.22° C | 84% | 1018.9 hPa | 0 mm | - | 77 W/m² | - |
| 1787743061 | 16.67° C | 84% | 1018.9 hPa | 0 mm | - | 81 W/m² | - |
| 1787742461 | 16.67° C | 84% | 1018.9 hPa | 0 mm | - | 100 W/m² | - |
| 1787741861 | 16.67° C | 85% | 1018.8 hPa | 0 mm | - | 88 W/m² | - |
| 1787741261 | 16.67° C | 85% | 1018.9 hPa | 0 mm | - | 107 W/m² | - |
* Rain latest hour (hover to see other rain measurements)
** Current wind speed in m/s (hover to see current wind gust speed)